Bowman Field (LOU)

 

Airport Diagram
Current Weather/Forecast (VFR Conditions)
METAR KLOU 182353Z 05003KT 10SM BKN085 16/03 A2988 RMK AO2 SLP118 T01560028 10178 20156 56005
TAF

Airport Information

All Charts
General
Chart Name View
AIRPORT DIAGRAM
AIRPORT DIAGRAM
TAKEOFF MINIMUMS
ALTERNATE MINIMUMS
TAKEOFF MINIMUMS
ALTERNATE MINIMUMS
HOT SPOT
HOT SPOT

Arrivals
Chart Name Download
CHERI FOUR
DARBY SEVEN
REDSTONE SIX
CHERI FOUR
DARBY SEVEN
REDSTONE SIX

Approaches
Chart Name Download
RNAV (GPS) RWY 24
RNAV (GPS) RWY 33
NDB RWY 33
RNAV (GPS) RWY 24
RNAV (GPS) RWY 33
NDB RWY 33


Airport Statistics
Departures Arrivals Local
All Collected Stats since June 2016: 160 111 26
2021 Stats: 29 20 1
April Stats: 2 1 0

Inbound Traffic (Arrivals) - 0

No inbound traffic.


Outbound Traffic (Departures) - 0

No outbound traffic.


Local Traffic (Pattern) - 0

No local traffic.